Retour au catalogue

STARLINK-30869

ActifCommunicationsVLEO
NORAD 58437·PAYLOAD·🇺🇸 United States

Lancé Nov 28, 2023 depuis Cape Canaveral Space Force Station

Loading…

Prochains Passages (prochaines 24 heures)

TLE

FraisSource: CelesTrak SupGP

Époque: Sep 14, 2026, 22:29 UTC

1 58437C 23183A   26257.93729167  .00046975  00000+0  17004-2 0  2571
2 58437  43.0015  52.9339 0001337 259.3285 196.1042 15.27576215    16

Suivez STARLINK-30869 en temps réel avec AllMySat

Download on the App Store